Regional Weather Roundup
Issued by NWS Albany, NY

Home | Current Version | Previous Version | Text Only | Print | Product List | Glossary On
Versions: 1 2 3 4 5 6 7 8 9 10 11 12 13 14 15 16 17 18 19 20 21 22 23 24 25 26 27
000
ASUS41 KALY 240410
RWRALY

NEW YORK STATE HOURLY WEATHER ROUNDUP
NATIONAL WEATHER SERVICE ALBANY NY
1200 AM EDT WED AUG 24 2016

NOTE: "FAIR" INDICATES FEW OR NO CLOUDS BELOW 12,000 FEET WITH NO
SIGNIFICANT WEATHER AND/OR NO OBSTRUCTIONS TO VISIBILITY.

NYZ032-033-038>043-046>054-057>066-NYZ062>081-082-084-240500-
EAST


CITY           SKY/WX    TMP DP  RH WIND       PRES   REMARKS
ALBANY         PTCLDY    64  58  80 CALM      30.26R
GLENS FALLS    CLEAR     59  56  89 CALM      30.25R
POUGHKEEPSIE   CLEAR     64  59  83 CALM      30.26R
NEWBURGH       CLEAR     63  59  88 CALM      30.29R
MONTGOMERY     CLEAR     61  58  90 CALM      30.28R
WHITE PLAINS   CLEAR     64  60  87 CALM      30.28R
ISLIP          CLEAR     68  60  75 SW5       30.27S
NEW YORK CITY  CLEAR     75  59  57 S10       30.26S
CENTRAL PARK   CLEAR     72  58  61 CALM      30.30R
$$

NYZ005>009-017-018-044>046-055-056-240500-
CENTRAL


CITY           SKY/WX    TMP DP  RH WIND       PRES   REMARKS
FULTON         CLEAR     59  58  96 CALM      30.24S
SYRACUSE       PTCLDY    63  59  87 SE5       30.24R
ROME           CLOUDY    60  58  92 CALM      30.27R
ELMIRA         CLEAR     58  54  86 W3        30.28R
BINGHAMTON     CLEAR     65  54  67 SW7       30.30R
MONTICELLO     CLEAR     57  55  94 CALM      30.33R
$$

NYZ026>034-041>043-087-240500-
NORTH


CITY           SKY/WX    TMP DP  RH WIND       PRES   REMARKS
WATERTOWN      PTCLDY    65  56  72 S5        30.22S
FORT DRUM      NOT AVBL
MASSENA        CLOUDY    67  57  70 SW10      30.19S
SARANAC LAKE   CLEAR     53  50  89 CALM      30.26R
PLATTSBURGH    CLEAR     64  56  75 S3        30.19R
$$

NYZ001>004-010>016-019>021-085-240500-
WEST


CITY           SKY/WX    TMP DP  RH WIND       PRES   REMARKS
NIAGARA FALLS  CLEAR     69  60  73 SW6       30.23F
BUFFALO        PTCLDY    68  59  73 S7        30.24F
DUNKIRK        CLEAR     61  58  90 CALM      30.26F
JAMESTOWN      CLEAR     61  55  82 CALM      30.30S
WELLSVILLE     CLEAR     61  55  81 CALM      30.34S
ROCHESTER      CLEAR     65  58  78 SW5       30.25S
PENN YAN       CLEAR     64  58  80 SW5       30.28R
$$

             KEY
       WCI = WIND CHILL INDEX
       VSB = VISIBILITY
       HX  = HEAT INDEX
$$




USA.gov is the U.S. government's official web portal to all federal, state and local government web resources and services.